Time,TemperatureF,DewpointF,PressureIn,WindDirection,WindDirectionDegrees,WindSpeedMPH,WindSpeedGustMPH,Humidity,HourlyPrecipIn,Conditions,Clouds,dailyrainin,SoftwareType,DateUTC
2013-03-18 00:02:00,18.0,5.0,-100.00,South,176,24.0,30.0,55,0.00,,,-99.99,,2013-03-18 06:02:00,
2013-03-18 00:12:00,18.0,5.0,-100.00,South,178,26.0,34.0,56,0.00,,,-99.99,,2013-03-18 06:12:00,
2013-03-18 00:22:00,18.0,5.0,-100.00,South,178,26.0,33.0,57,0.00,,,-99.99,,2013-03-18 06:22:00,
2013-03-18 00:32:00,18.0,6.0,-100.00,South,172,24.0,32.0,59,0.00,,,-99.99,,2013-03-18 06:32:00,
2013-03-18 00:42:00,18.0,6.0,-100.00,South,175,26.0,32.0,60,0.00,,,-99.99,,2013-03-18 06:42:00,
2013-03-18 00:52:00,18.0,6.0,-100.00,South,174,24.0,30.0,60,0.00,,,-99.99,,2013-03-18 06:52:00,
2013-03-18 01:02:00,17.0,6.0,-100.00,South,175,24.0,31.0,62,0.00,,,-99.99,,2013-03-18 07:02:00,
2013-03-18 01:12:00,17.0,6.0,-100.00,South,175,23.0,30.0,61,0.00,,,-99.99,,2013-03-18 07:12:00,
2013-03-18 01:22:00,17.0,6.0,-100.00,South,174,22.0,27.0,62,0.00,,,-99.99,,2013-03-18 07:22:00,
2013-03-18 01:32:00,17.0,7.0,-100.00,South,174,20.0,26.0,63,0.00,,,-99.99,,2013-03-18 07:32:00,
2013-03-18 01:42:00,17.0,6.0,-100.00,South,178,19.0,26.0,63,0.00,,,-99.99,,2013-03-18 07:42:00,
2013-03-18 01:52:00,17.0,6.0,-100.00,South,179,19.0,27.0,63,0.00,,,-99.99,,2013-03-18 07:52:00,
2013-03-18 02:02:00,17.0,6.0,-100.00,South,174,21.0,26.0,64,0.00,,,-99.99,,2013-03-18 08:02:00,
2013-03-18 02:12:00,17.0,7.0,-100.00,South,172,23.0,29.0,64,0.00,,,-99.99,,2013-03-18 08:12:00,
2013-03-18 02:22:00,16.0,7.0,-100.00,South,171,21.0,26.0,66,0.00,,,-99.99,,2013-03-18 08:22:00,
2013-03-18 02:32:00,16.0,7.0,-100.00,South,174,21.0,26.0,66,0.00,,,-99.99,,2013-03-18 08:32:00,
2013-03-18 02:43:00,16.0,7.0,-100.00,South,169,20.0,26.0,67,0.00,,,-99.99,,2013-03-18 08:43:00,
2013-03-18 02:52:00,15.0,7.0,-100.00,SSE,168,19.0,26.0,68,0.00,,,-99.99,,2013-03-18 08:52:00,
2013-03-18 03:02:00,15.0,7.0,-100.00,SSE,168,16.0,21.0,69,0.00,,,-99.99,,2013-03-18 09:02:00,
2013-03-18 03:12:00,15.0,7.0,-100.00,South,169,17.0,22.0,69,0.00,,,-99.99,,2013-03-18 09:12:00,
2013-03-18 03:22:00,15.0,6.0,-100.00,SSE,158,21.0,28.0,68,0.00,,,-99.99,,2013-03-18 09:22:00,
2013-03-18 03:33:00,15.0,6.0,-100.00,SSE,160,20.0,26.0,67,0.00,,,-99.99,,2013-03-18 09:33:00,
2013-03-18 03:42:00,15.0,6.0,-100.00,SSE,158,21.0,26.0,66,0.00,,,-99.99,,2013-03-18 09:42:00,
2013-03-18 03:53:00,15.0,5.0,-100.00,SSE,161,20.0,25.0,65,0.00,,,-99.99,,2013-03-18 09:53:00,
2013-03-18 04:03:00,15.0,5.0,-100.00,SSE,164,18.0,24.0,66,0.00,,,-99.99,,2013-03-18 10:03:00,
2013-03-18 04:12:00,15.0,5.0,-100.00,SSE,164,17.0,21.0,65,0.00,,,-99.99,,2013-03-18 10:12:00,
2013-03-18 04:23:00,15.0,5.0,-100.00,SSE,167,20.0,27.0,64,0.00,,,-99.99,,2013-03-18 10:23:00,
2013-03-18 04:33:00,15.0,5.0,-100.00,SSE,162,22.0,27.0,64,0.00,,,-99.99,,2013-03-18 10:33:00,
2013-03-18 04:42:00,15.0,5.0,-100.00,SSE,162,22.0,27.0,64,0.00,,,-99.99,,2013-03-18 10:42:00,
2013-03-18 04:52:00,15.0,5.0,-100.00,SSE,168,26.0,33.0,62,0.00,,,-99.99,,2013-03-18 10:52:00,
2013-03-18 05:03:00,16.0,4.0,-100.00,SSE,167,27.0,37.0,61,0.00,,,-99.99,,2013-03-18 11:03:00,
2013-03-18 05:12:00,16.0,5.0,-100.00,SSE,167,28.0,37.0,61,0.00,,,-99.99,,2013-03-18 11:12:00,
2013-03-18 05:22:00,-999.0,-99.9,-100.00,SSE,167,29.0,36.0,-999,-99.99,,,-99.99,,2013-03-18 11:22:00,
2013-03-18 05:32:00,16.0,4.0,-100.00,SSE,167,28.0,34.0,60,0.00,,,-99.99,,2013-03-18 11:32:00,
2013-03-18 05:43:00,-999.0,-99.9,-100.00,SSE,164,30.0,37.0,-999,-99.99,,,-99.99,,2013-03-18 11:43:00,
2013-03-18 05:53:00,-999.0,-99.9,-100.00,SSE,164,27.0,33.0,-999,-99.99,,,-99.99,,2013-03-18 11:53:00,
2013-03-18 06:03:00,-999.0,-99.9,-100.00,SSE,167,27.0,33.0,-999,-99.99,,,-99.99,,2013-03-18 12:03:00,
2013-03-18 06:12:00,16.0,4.0,-100.00,SSE,167,28.0,35.0,58,0.00,,,-99.99,,2013-03-18 12:12:00,
2013-03-18 06:22:00,16.0,4.0,-100.00,SSE,167,27.0,35.0,60,0.00,,,-99.99,,2013-03-18 12:22:00,
2013-03-18 06:32:00,16.0,4.0,-100.00,South,169,28.0,35.0,59,0.00,,,-99.99,,2013-03-18 12:32:00,
2013-03-18 06:42:00,16.0,4.0,-100.00,South,171,26.0,35.0,58,0.00,,,-99.99,,2013-03-18 12:42:00,
2013-03-18 06:52:00,16.0,4.0,-100.00,South,172,28.0,34.0,57,0.00,,,-99.99,,2013-03-18 12:52:00,
2013-03-18 07:02:00,17.0,4.0,-100.00,South,172,27.0,34.0,58,0.00,,,-99.99,,2013-03-18 13:02:00,
2013-03-18 07:12:00,17.0,4.0,-100.00,South,174,24.0,31.0,58,0.00,,,-99.99,,2013-03-18 13:12:00,
2013-03-18 07:22:00,17.0,4.0,-100.00,South,175,26.0,32.0,57,0.00,,,-99.99,,2013-03-18 13:22:00,
2013-03-18 07:32:00,17.0,5.0,-100.00,South,175,25.0,30.0,58,0.00,,,-99.99,,2013-03-18 13:32:00,
2013-03-18 07:42:00,17.0,4.0,-100.00,South,176,26.0,30.0,57,0.00,,,-99.99,,2013-03-18 13:42:00,
2013-03-18 07:52:00,17.0,4.0,-100.00,South,175,24.0,31.0,56,0.00,,,-99.99,,2013-03-18 13:52:00,
2013-03-18 08:02:00,17.0,4.0,-100.00,South,174,24.0,32.0,56,0.00,,,-99.99,,2013-03-18 14:02:00,
2013-03-18 08:12:00,17.0,4.0,-100.00,South,175,24.0,31.0,55,0.00,,,-99.99,,2013-03-18 14:12:00,
2013-03-18 08:22:00,18.0,5.0,-100.00,South,174,27.0,35.0,57,-99.99,,,-99.99,,2013-03-18 14:22:00,
2013-03-18 08:32:00,18.0,5.0,-100.00,South,174,29.0,36.0,57,0.00,,,-99.99,,2013-03-18 14:32:00,
2013-03-18 08:42:00,18.0,5.0,-100.00,South,172,30.0,37.0,55,-99.99,,,-99.99,,2013-03-18 14:42:00,
2013-03-18 08:52:00,18.0,5.0,-100.00,South,172,29.0,37.0,56,0.00,,,-99.99,,2013-03-18 14:52:00,
2013-03-18 09:02:00,19.0,5.0,-100.00,South,174,27.0,35.0,54,0.00,,,-99.99,,2013-03-18 15:02:00,
2013-03-18 09:12:00,19.0,5.0,-100.00,South,174,27.0,35.0,53,0.00,,,-99.99,,2013-03-18 15:12:00,
2013-03-18 09:22:00,19.0,6.0,-100.00,South,175,27.0,34.0,55,0.00,,,-99.99,,2013-03-18 15:22:00,
2013-03-18 09:33:00,20.0,6.0,-100.00,South,175,29.0,37.0,55,0.00,,,-99.99,,2013-03-18 15:33:00,
2013-03-18 09:42:00,20.0,5.0,-100.00,South,176,31.0,39.0,52,0.00,,,-99.99,,2013-03-18 15:42:00,
2013-03-18 09:52:00,20.0,5.0,-100.00,South,181,32.0,40.0,51,0.00,,,-99.99,,2013-03-18 15:52:00,
2013-03-18 10:02:00,21.0,6.0,-100.00,South,176,32.0,44.0,52,0.00,,,-99.99,,2013-03-18 16:02:00,
2013-03-18 10:12:00,21.0,6.0,-100.00,South,178,32.0,44.0,52,0.00,,,-99.99,,2013-03-18 16:12:00,
2013-03-18 10:22:00,22.0,5.0,-100.00,South,181,30.0,40.0,49,0.00,,,-99.99,,2013-03-18 16:22:00,
2013-03-18 10:32:00,22.0,5.0,-100.00,South,178,33.0,40.0,48,0.00,,,-99.99,,2013-03-18 16:32:00,
2013-03-18 10:42:00,22.0,5.0,-100.00,South,178,33.0,40.0,48,0.00,,,-99.99,,2013-03-18 16:42:00,
2013-03-18 10:52:00,22.0,7.0,-100.00,South,179,34.0,42.0,52,0.00,,,-99.99,,2013-03-18 16:52:00,
2013-03-18 11:02:00,23.0,6.0,-100.00,South,178,31.0,41.0,48,0.00,,,-99.99,,2013-03-18 17:02:00,
2013-03-18 11:12:00,22.0,8.0,-100.00,South,179,30.0,39.0,55,0.00,,,-99.99,,2013-03-18 17:12:00,
2013-03-18 11:22:00,23.0,7.0,-100.00,South,179,35.0,44.0,49,0.00,,,-99.99,,2013-03-18 17:22:00,
2013-03-18 11:32:00,24.0,6.0,-100.00,South,181,35.0,44.0,47,0.00,,,-99.99,,2013-03-18 17:32:00,
2013-03-18 11:42:00,23.0,8.0,-100.00,South,174,37.0,47.0,50,0.00,,,-99.99,,2013-03-18 17:42:00,
2013-03-18 11:52:00,24.0,8.0,-100.00,South,178,37.0,47.0,49,0.00,,,-99.99,,2013-03-18 17:52:00,
2013-03-18 12:02:00,24.0,8.0,-100.00,South,178,36.0,45.0,51,0.00,,,-99.99,,2013-03-18 18:02:00,
2013-03-18 12:12:00,24.0,8.0,-100.00,South,181,35.0,45.0,50,0.00,,,-99.99,,2013-03-18 18:12:00,
2013-03-18 12:22:00,25.0,9.0,-100.00,South,178,34.0,43.0,50,0.00,,,-99.99,,2013-03-18 18:22:00,
2013-03-18 12:32:00,25.0,10.0,-100.00,South,184,34.0,49.0,51,0.00,,,-99.99,,2013-03-18 18:32:00,
2013-03-18 12:42:00,25.0,10.0,-100.00,South,178,39.0,49.0,52,0.00,,,-99.99,,2013-03-18 18:42:00,
2013-03-18 13:02:00,26.0,11.0,-100.00,South,178,38.0,48.0,53,0.00,,,-99.99,,2013-03-18 19:02:00,
2013-03-18 13:12:00,26.0,10.0,-100.00,South,179,38.0,49.0,51,0.00,,,-99.99,,2013-03-18 19:12:00,
2013-03-18 13:22:00,26.0,9.0,-100.00,South,176,42.0,52.0,47,0.00,,,-99.99,,2013-03-18 19:22:00,
2013-03-18 13:32:00,26.0,9.0,-100.00,South,175,41.0,51.0,47,0.00,,,-99.99,,2013-03-18 19:32:00,
2013-03-18 13:42:00,27.0,9.0,-100.00,South,172,39.0,48.0,46,0.00,,,-99.99,,2013-03-18 19:42:00,
2013-03-18 13:52:00,28.0,8.0,-100.00,South,169,38.0,47.0,41,0.00,,,-99.99,,2013-03-18 19:52:00,
2013-03-18 14:02:00,28.0,7.0,-100.00,South,178,40.0,49.0,41,0.00,,,-99.99,,2013-03-18 20:02:00,
2013-03-18 14:12:00,27.0,7.0,-100.00,South,179,39.0,50.0,43,0.00,,,-99.99,,2013-03-18 20:12:00,
2013-03-18 14:22:00,27.0,9.0,-100.00,South,181,37.0,45.0,47,0.00,,,-99.99,,2013-03-18 20:22:00,
2013-03-18 14:32:00,27.0,9.0,-100.00,South,178,37.0,50.0,46,0.00,,,-99.99,,2013-03-18 20:32:00,
2013-03-18 14:42:00,26.0,11.0,-100.00,South,178,40.0,49.0,51,0.00,,,-99.99,,2013-03-18 20:42:00,
2013-03-18 14:52:00,27.0,10.0,-100.00,South,184,34.0,47.0,47,0.00,,,-99.99,,2013-03-18 20:52:00,
2013-03-18 15:02:00,27.0,12.0,-100.00,South,179,38.0,50.0,54,0.00,,,-99.99,,2013-03-18 21:02:00,
2013-03-18 15:12:00,28.0,10.0,-100.00,South,185,32.0,48.0,46,0.00,,,-99.99,,2013-03-18 21:12:00,
2013-03-18 15:22:00,28.0,9.0,-100.00,South,189,30.0,42.0,44,0.00,,,-99.99,,2013-03-18 21:22:00,
2013-03-18 15:32:00,30.0,9.0,-100.00,South,191,27.0,35.0,40,0.00,,,-99.99,,2013-03-18 21:32:00,
2013-03-18 15:42:00,31.0,6.0,-100.00,SSW,193,32.0,45.0,35,0.00,,,-99.99,,2013-03-18 21:42:00,
2013-03-18 15:52:00,30.0,7.0,-100.00,South,186,34.0,51.0,37,0.00,,,-99.99,,2013-03-18 21:52:00,
2013-03-18 16:03:00,30.0,6.0,-100.00,SSW,192,35.0,51.0,35,0.00,,,-99.99,,2013-03-18 22:03:00,
2013-03-18 16:13:00,31.0,7.0,-100.00,South,189,35.0,51.0,35,0.00,,,-99.99,,2013-03-18 22:13:00,
2013-03-18 16:23:00,31.0,5.0,-100.00,South,191,38.0,50.0,32,0.00,,,-99.99,,2013-03-18 22:23:00,
2013-03-18 16:33:00,33.0,6.0,-100.00,South,191,36.0,50.0,31,0.00,,,-99.99,,2013-03-18 22:33:00,
2013-03-18 16:42:00,32.0,4.0,-100.00,South,191,38.0,53.0,30,0.00,,,-99.99,,2013-03-18 22:42:00,
2013-03-18 16:52:00,31.0,4.0,-100.00,SSW,196,38.0,50.0,30,0.00,,,-99.99,,2013-03-18 22:52:00,
2013-03-18 17:02:00,31.0,3.0,-100.00,SSW,196,39.0,54.0,30,0.00,,,-99.99,,2013-03-18 23:02:00,
2013-03-18 17:12:00,31.0,4.0,-100.00,SSW,196,35.0,47.0,31,0.00,,,-99.99,,2013-03-18 23:12:00,
2013-03-18 17:22:00,31.0,5.0,-100.00,South,189,34.0,45.0,33,0.00,,,-99.99,,2013-03-18 23:22:00,
2013-03-18 17:32:00,31.0,3.0,-100.00,SSW,195,35.0,52.0,31,0.00,,,-99.99,,2013-03-18 23:32:00,
2013-03-18 17:43:00,-999.0,-99.9,-100.00,South,191,35.0,49.0,-999,-99.99,,,-99.99,,2013-03-18 23:43:00,
2013-03-18 17:52:00,30.0,5.0,-100.00,South,191,35.0,44.0,33,0.00,,,-99.99,,2013-03-18 23:52:00,
2013-03-18 18:02:00,30.0,3.0,-100.00,SSW,193,38.0,52.0,31,0.00,,,-99.99,,2013-03-19 00:02:00,
2013-03-18 18:12:00,30.0,5.0,-100.00,South,191,37.0,52.0,33,0.00,,,-99.99,,2013-03-19 00:12:00,
2013-03-18 18:23:00,-999.0,-99.9,-100.00,South,189,39.0,52.0,-999,-99.99,,,-99.99,,2013-03-19 00:23:00,
2013-03-18 18:32:00,29.0,4.0,-100.00,South,188,33.0,44.0,34,0.00,,,-99.99,,2013-03-19 00:32:00,
2013-03-18 18:42:00,29.0,4.0,-100.00,South,191,32.0,40.0,33,0.00,,,-99.99,,2013-03-19 00:42:00,
2013-03-18 18:52:00,29.0,4.0,-100.00,South,189,29.0,40.0,34,0.00,,,-99.99,,2013-03-19 00:52:00,
2013-03-18 19:02:00,29.0,4.0,-100.00,SSW,195,32.0,43.0,34,-99.99,,,-99.99,,2013-03-19 01:02:00,
2013-03-18 19:12:00,29.0,5.0,-100.00,SSW,193,34.0,45.0,35,0.00,,,-99.99,,2013-03-19 01:12:00,
2013-03-18 19:22:00,29.0,6.0,-100.00,SSW,192,32.0,46.0,37,-99.99,,,-99.99,,2013-03-19 01:22:00,
2013-03-18 19:32:00,28.0,6.0,-100.00,South,189,32.0,47.0,38,0.00,,,-99.99,,2013-03-19 01:32:00,
2013-03-18 19:42:00,28.0,6.0,-100.00,SSW,192,30.0,43.0,39,0.00,,,-99.99,,2013-03-19 01:42:00,
2013-03-18 19:52:00,28.0,6.0,-100.00,South,191,30.0,40.0,39,0.00,,,-99.99,,2013-03-19 01:52:00,
2013-03-18 20:02:00,28.0,6.0,-100.00,SSW,192,31.0,40.0,40,0.00,,,-99.99,,2013-03-19 02:02:00,
2013-03-18 20:12:00,27.0,6.0,-100.00,SSW,193,32.0,44.0,39,0.00,,,-99.99,,2013-03-19 02:12:00,
2013-03-18 20:22:00,28.0,6.0,-100.00,SSW,193,31.0,38.0,40,0.00,,,-99.99,,2013-03-19 02:22:00,
2013-03-18 20:32:00,28.0,6.0,-100.00,SSW,195,31.0,42.0,39,0.00,,,-99.99,,2013-03-19 02:32:00,
2013-03-18 20:42:00,27.0,7.0,-100.00,South,191,32.0,40.0,42,0.00,,,-99.99,,2013-03-19 02:42:00,
2013-03-18 20:52:00,27.0,8.0,-100.00,South,188,31.0,43.0,44,0.00,,,-99.99,,2013-03-19 02:52:00,
2013-03-18 21:02:00,27.0,7.0,-100.00,South,186,28.0,37.0,43,0.00,,,-99.99,,2013-03-19 03:02:00,
2013-03-18 21:12:00,27.0,8.0,-100.00,South,189,30.0,41.0,45,0.00,,,-99.99,,2013-03-19 03:12:00,
2013-03-18 21:22:00,27.0,9.0,-100.00,South,188,32.0,44.0,46,0.00,,,-99.99,,2013-03-19 03:22:00,
2013-03-18 21:32:00,27.0,10.0,-100.00,South,185,34.0,45.0,47,0.00,,,-99.99,,2013-03-19 03:32:00,
2013-03-18 21:43:00,27.0,9.0,-100.00,South,189,35.0,47.0,46,0.00,,,-99.99,,2013-03-19 03:43:00,
2013-03-18 21:53:00,27.0,10.0,-100.00,South,185,35.0,45.0,47,-99.99,,,-99.99,,2013-03-19 03:53:00,
2013-03-18 22:03:00,27.0,10.0,-100.00,South,188,29.0,39.0,47,0.00,,,-99.99,,2013-03-19 04:03:00,
2013-03-18 22:13:00,27.0,11.0,-100.00,South,186,33.0,41.0,50,0.00,,,-99.99,,2013-03-19 04:13:00,
2013-03-18 22:23:00,26.0,11.0,-100.00,South,182,32.0,45.0,52,0.00,,,-99.99,,2013-03-19 04:23:00,
2013-03-18 22:33:00,26.0,10.0,-100.00,South,182,29.0,40.0,50,0.00,,,-99.99,,2013-03-19 04:33:00,
2013-03-18 22:42:00,26.0,11.0,-100.00,South,179,29.0,35.0,52,0.00,,,-99.99,,2013-03-19 04:42:00,
2013-03-18 22:52:00,26.0,10.0,-100.00,South,178,29.0,38.0,51,0.00,,,-99.99,,2013-03-19 04:52:00,
2013-03-18 23:02:00,26.0,10.0,-100.00,South,178,30.0,40.0,51,0.00,,,-99.99,,2013-03-19 05:02:00,
2013-03-18 23:12:00,26.0,10.0,-100.00,South,178,32.0,42.0,51,0.00,,,-99.99,,2013-03-19 05:12:00,
2013-03-18 23:22:00,25.0,9.0,-100.00,South,174,32.0,40.0,50,0.00,,,-99.99,,2013-03-19 05:22:00,
2013-03-18 23:32:00,25.0,9.0,-100.00,South,176,32.0,44.0,50,0.00,,,-99.99,,2013-03-19 05:32:00,
2013-03-18 23:42:00,24.0,9.0,-100.00,South,176,29.0,42.0,51,0.00,,,-99.99,,2013-03-19 05:42:00,
2013-03-18 23:52:00,25.0,8.0,-100.00,South,179,32.0,44.0,48,0.00,,,-99.99,,2013-03-19 05:52:00,